This is the latest recevied weather packets stored in our database for station/object 9M4GEK-3. If no packets are shown the sender has not sent any weather packets the latest 10 day(s).
| Time | Temp. | Humidity | Pressure | Rain* | Wind** | Luminosity | Snow |
|---|---|---|---|---|---|---|---|
| 1777905623 | 27.78° C | 68% | 1009.1 hPa | - | - | - | - |
| 1777905571 | 27.78° C | 68% | 1009.1 hPa | - | - | - | - |
| 1777904671 | 27.78° C | 68% | 1008.8 hPa | - | - | - | - |
| 1777903832 | 27.78° C | 68% | 1008.4 hPa | - | - | - | - |
| 1777903770 | 27.78° C | 68% | 1008.4 hPa | - | - | - | - |
| 1777902940 | 27.78° C | 68% | 1008.5 hPa | - | - | - | - |
| 1777902871 | 27.78° C | 68% | 1008.5 hPa | - | - | - | - |
| 1777901971 | 28.33° C | 67% | 1008.5 hPa | - | - | - | - |
| 1777901193 | 28.33° C | 66% | 1008.2 hPa | - | - | - | - |
| 1777901114 | 28.33° C | 65% | 1008 hPa | - | - | - | - |
| 1777901071 | 28.33° C | 67% | 1008.4 hPa | - | - | - | - |
| 1777900498 | 29.44° C | 64% | 1007.1 hPa | - | - | - | - |
| 1777900268 | 29.44° C | 62% | 1006.7 hPa | - | - | - | - |
| 1777900258 | 28.33° C | 66% | 1008.2 hPa | - | - | - | - |
| 1777900169 | 28.33° C | 66% | 1008.2 hPa | - | - | - | - |
| 1777899992 | 30.56° C | 59% | 1006.6 hPa | - | - | - | - |
| 1777899270 | 28.33° C | 66% | 1008.2 hPa | - | - | - | - |
| 1777899172 | 32.22° C | 56% | 1006 hPa | - | - | - | - |
| 1777898466 | 33.89° C | 52% | 1005.8 hPa | - | - | - | - |
| 1777898370 | 28.33° C | 65% | 1008 hPa | - | - | - | - |
| 1777897584 | 37.22° C | 45% | 1006.7 hPa | - | - | - | - |
| 1777897469 | 28.89° C | 65% | 1007.8 hPa | - | - | - | - |
| 1777897374 | 37.78° C | 45% | 1006.9 hPa | - | - | - | - |
| 1777896860 | 35.56° C | 50% | 1007.1 hPa | - | - | - | - |
| 1777896568 | 28.89° C | 65% | 1007.6 hPa | - | - | - | - |
* Rain since midnight (hover to see other rain measurements)
** Current wind speed in m/s (hover to see current wind gust speed)